This is the latest recevied weather packets stored in our database for station/object W1GK. If no packets are shown the sender has not sent any weather packets the latest 10 day(s).
| Time | Temp. | Humidity | Pressure | Rain* | Wind** | Luminosity | Snow |
|---|---|---|---|---|---|---|---|
| 1777913999 | 20° C | 32% | 1010.4 hPa | 0 mm | - | 429 W/m² | - |
| 1777913399 | 19.44° C | 33% | 1010.4 hPa | 0 mm | - | 494 W/m² | - |
| 1777912799 | 18.89° C | 34% | 1010.4 hPa | 0 mm | - | 434 W/m² | - |
| 1777912199 | 18.89° C | 35% | 1010.3 hPa | 0 mm | - | 432 W/m² | - |
| 1777911602 | 18.89° C | 36% | 1010.4 hPa | 0 mm | - | 476 W/m² | - |
| 1777911002 | 18.33° C | 37% | 1010.3 hPa | 0 mm | - | 462 W/m² | - |
| 1777910401 | 17.78° C | 38% | 1010.3 hPa | 0 mm | - | 454 W/m² | - |
| 1777909799 | 17.78° C | 39% | 1010.3 hPa | 0 mm | - | 251 W/m² | - |
| 1777909200 | 17.22° C | 40% | 1010.3 hPa | 0 mm | - | 360 W/m² | - |
| 1777908599 | 17.22° C | 40% | 1010.4 hPa | 0 mm | - | 318 W/m² | - |
| 1777907999 | 16.67° C | 41% | 1010.3 hPa | 0 mm | - | 287 W/m² | - |
| 1777907400 | 16.67° C | 41% | 1010.3 hPa | 0 mm | - | 192 W/m² | - |
| 1777906799 | 16.67° C | 42% | 1010.1 hPa | 0 mm | - | 211 W/m² | - |
| 1777906200 | 16.11° C | 42% | 1010.1 hPa | 0 mm | - | 172 W/m² | - |
| 1777905599 | 16.11° C | 42% | 1009.8 hPa | 0 mm | - | 174 W/m² | - |
| 1777904999 | 16.11° C | 42% | 1009.7 hPa | 0 mm | - | 148 W/m² | - |
| 1777904400 | 16.11° C | 42% | 1009.5 hPa | 0 mm | - | 128 W/m² | - |
| 1777903799 | 16.11° C | 42% | 1009.4 hPa | 0 mm | - | 160 W/m² | - |
| 1777903198 | 16.11° C | 42% | 1009.3 hPa | 0 mm | - | 97 W/m² | - |
| 1777902598 | 16.11° C | 41% | 1009.1 hPa | 0 mm | - | 76 W/m² | - |
| 1777901999 | 16.11° C | 41% | 1009 hPa | 0 mm | - | 56 W/m² | - |
| 1777901400 | 16.11° C | 40% | 1008.9 hPa | 0 mm | - | 40 W/m² | - |
| 1777900798 | 16.11° C | 40% | 1009 hPa | 0 mm | - | 30 W/m² | - |
| 1777900200 | 16.11° C | 40% | 1009 hPa | 0 mm | - | 21 W/m² | - |
| 1777899601 | 16.11° C | 40% | 1008.8 hPa | 0 mm | - | 9 W/m² | - |
* Rain latest hour (hover to see other rain measurements)
** Current wind speed in m/s (hover to see current wind gust speed)